Regional Weather Roundup
Issued by NWS Upton, NY

Current Version | Previous Version | Text Only | Print | Product List | Glossary Off
Versions: 1 2 3 4 5 6 7 8 9 10 11 12 13 14 15 16 17 18 19 20 21 22 23 24 25 26 27 28 29 30 31 32 33 34 35 36 37 38 39 40 41 42 43 44 45 46 47 48 49 50
000 ASUS41 KOKX 270105 RWROKX REGIONAL WEATHER ROUNDUP NATIONAL WEATHER SERVICE NEW YORK NY 800 PM EST WED NOV 26 2014 NOTE: "FAIR" INDICATES FEW OR NO CLOUDS BELOW 12,000 FEET WITH NO SIGNIFICANT WEATHER AND/OR OBSTRUCTIONS TO VISIBILITY. NYZ071-072-176-178-NJZ106-104-270200- NEW YORK CITY METRO AREA CITY SKY/WX TMP DP RH WIND PRES REMARKS CENTRAL PARK LGT RAIN 35 32 88 N8 29.82R FOG WCI 29 LAGUARDIA APRT LGT SNOW 36 33 89 NW24G31 29.79R FOG WCI 24 KENNEDY INTL LGT RAIN 37 34 89 N23G30 29.78R FOG WCI 26 NEWARK/LIBERTY LGT SNOW 35 33 92 N18G26 29.82R FOG WCI 24 BRNX BOT. GARD N/A 34 32 93 NW14 29.79S WCI 24 TETERBORO LGT RAIN 36 30 80 N14G21 29.81R WCI 27 $$ NYZ177-179-078>081-270200- LONG ISLAND NEW YORK CITY SKY/WX TMP DP RH WIND PRES REMARKS FARMINGDALE LGT RAIN 39 35 86 N14 29.74R FOG WCI 31 ISLIP LGT RAIN 37 34 89 N18G29 29.70R FOG WCI 27 SHIRLEY LGT SNOW 37 34 89 N21G29 29.70F FOG WCI 26 WESTHAMPTON LGT RAIN 39 35 86 N15G26 29.68F FOG WCI 31 MONTAUK POINT N/A 43 40 89 N15G29 29.64S $$ NYZ052-065-067-270200- HUDSON VALLEY CITY SKY/WX TMP DP RH WIND PRES REMARKS WHITE PLAINS LGT RAIN 33 31 92 NW22G32 29.77R FOG WCI 21 NEWBURGH LGT SNOW 32 32 100 NW14 29.86S WCI 22 MONTGOMERY LGT SNOW 34 31 88 N8 29.84F FOG WCI 27 POUGHKEEPSIE LGT SNOW 34 30 85 N13G24 29.86R FOG WCI 25 ALBANY LGT SNOW 32 29 88 N12 29.95R VSB 1 WCI 23 $$ NJZ001-105-106-008-010-013-015-019>022-104-270200- NEW JERSEY CITY SKY/WX TMP DP RH WIND PRES REMARKS NEWARK/LIBERTY LGT SNOW 35 33 92 N18G26 29.82R FOG WCI 24 TETERBORO LGT RAIN 36 30 80 N14G21 29.81R WCI 27 CALDWELL LGT SNOW 34 30 85 CALM 29.84S FOG MORRISTOWN NOT AVBL SOMERVILLE LGT RAIN 36 32 85 NW10 29.83F WCI 28 SUSSEX LGT SNOW 34 31 88 N8 29.86S FOG WCI 27 ANDOVER N/A 33 31 92 N9 29.86S WCI 25 TRENTON LGT SNOW 34 32 92 NW9G20 29.84R FOG WCI 27 MILLVILLE MIX PCPN 36 34 92 NW12G22 29.85R WCI 28 ATLANTIC CITY LGT SNOW 35 34 96 NW18G26 29.81R FOG WCI 24 WRIGHTSTOWN FLURRIES 34 34 98 NW16G23 29.81R WCI 24 TOMS RIVER CLOUDY 36 34 93 NW6 29.81R WCI 31 BELMAR CLOUDY 36 30 80 NW16G25 29.79R WCI 26 $$ PAZ047>061-062-071-270200- EASTERN PENNSYLVANIA CITY SKY/WX TMP DP RH WIND PRES REMARKS PHILADELPHIA LGT RAIN 37 33 85 NW21G30 29.87S WCI 26 ALLENTOWN FLURRIES 35 31 85 NW5 29.89F WCI 31 SCRANTON LGT SNOW 32 29 88 VRB6 29.92F FOG WCI 26 $$ CTZ002-004>006-009-010-012-RIZ004-006-007-MAZ004-011-015-270200- SOUTHERN NEW ENGLAND IN CT CITY SKY/WX TMP DP RH WIND PRES REMARKS BRADLEY INTL LGTSLEET 34 31 88 N17G24 29.78S FOG WCI 23 HARTFORD LGT SNOW 33 31 92 N15G22 29.76S FOG WCI 23 DANBURY LGT RAIN 34 32 92 NW6 29.80R FOG WCI 29 WTRBRY/OXFORD LGT SNOW 34 27 75 MISG 29.75 FOG BRIDGEPORT LGT SNOW 37 34 89 N17G28 29.74R FOG WCI 27 MERIDEN LGT SNOW 35 31 85 N14G26 29.74F FOG WCI 26 NEW HAVEN LGT RAIN 38 33 82 N17 29.72R WCI 28 CHESTER MIX PCPN 34 34 100 N12G26 29.69F WCI 25 GROTON RAIN 36 35 96 N16G28 29.66R FOG WCI 26 WILLIMANTIC LGT RAIN 36 32 85 N13 29.73R FOG WCI 27 IN RI CITY SKY/WX TMP DP RH WIND PRES REMARKS PROVIDENCE LGT RAIN 37 35 92 N18G25 29.66F WCI 27 BLOCK ISLAND CLOUDY 45 39 81 NE23G36 29.59F WESTERLY LGT RAIN 38 36 92 N15G25 29.64R WCI 29 IN MA CITY SKY/WX TMP DP RH WIND PRES REMARKS BOSTON LGT RAIN 39 37 92 N23G36 29.76F FOG WCI 28 WORCESTER FRZ RAIN 31 30 96 N20G36 29.71F FOG WCI 19 WESTFIELD LGT SNOW 33 31 92 N18G29 29.79F FOG WCI 22 PROVINCETOWN CLOUDY 46 41 81 NE26G41 29.65F NANTUCKET LGT RAIN 47 44 90 NE24G40 29.57F FOG $$ ANZ330-335-338-340-345-350-353-355-270200- COASTAL MARINE OBSERVATIONS STATION/POSITION TIME SKY/WX TEMP WIND PRES VSBY WAVE AIR SEA DIR/SP/G HT/PER (UTC) (F) (DEG/KT/KT) (MB) (MI) (FT/S) NY HARB ENTRANCE 0100 40 55 340/ 25/ 29 1007.5 9/ 9 4S FIRE IS 0100 53 N/A 8/ 8 20S FIRE ISLAND 0100 41 55 350/ 27/ 31 1004.4 11/ 8 23SW MTP 0100 N/A 15/ 8 HUDSON CANYON 0100 52 59 360/ 25/ 35 999.7 17/10 EXECUTION ROCKS 0100 37 48 340/ 21/ 29 N/A WESTERN LI SOUND 0100 38 350/ 19/ 25 N/A 3/ 5 CENTRAL LI SOUND 0000 37 50 350/ 19/ 23 N/A 4/ 5 EASTERN LI SOUND 0000 41 52 20/ 19/ 27 N/A ROBBINS REEF 0100 35 340/ 15/ 24 1007.8 $$ >>>>>>>>>>>>>>>>>>>>>>>>>>>> KEY <<<<<<<<<<<<<<<<<<<<<<<<<<< > < > SKY/WX - SKY CONDITION/PRESENT WEATHER < > TMP - TEMPERATURE IN FAHRENHEIT < > DP - DEWPOINT IN FAHRENHEIT < > RH - RELATIVE HUMIDITY IN PERCENT < > WIND - DIRECTION AND SPEED IN MPH < > PRES - MEAN SEA LEVEL PRESSURE IN INCHES OF HG < > WCI - WIND CHILL INDEX < > VSB - VISIBILITY IN MILES < > HX - HEAT INDEX < > TC - TEMPERATURE IN CELSIUS < > VRB - VARIABLE WIND DIRECTION < > < >>>>>>>>>>>>>>>>>>>>>>>>>>>> KEY <<<<<<<<<<<<<<<<<<<<<<<<<<<

USA.gov is the U.S. government's official web portal to all federal, state and local government web resources and services.